Location: Michelbach Markt
(48.1000°N, 15.7500°E)
Time: 15:15:59
(UTC+02:00)

Envisat - Pass Details

Date: 05 February 2022
Orbit: 764 x 765 km, 98.2° (Epoch: 17 May)

Event Time Altitude Azimuth Distance (km) Brightness Sun altitude
Rises 04:05:26 0° 22° (NNE) 3,243 6.7 -32.6°
Reaches altitude 10° 04:08:00 10° 32° (NNE) 2,313 6.0 -32.2°
Maximum altitude 04:12:31 32° 95° (E) 1,309 4.6 -31.5°
Drops below altitude 10° 04:17:01 10° 157° (SSE) 2,298 5.6 -30.7°
Sets 04:19:33 0° 168° (SSE) 3,220 6.3 -30.3°
